Location: Bodham
(52.9000°N, 1.1667°E)
Time: 13:57:50
(UTC+00:00)

Cosmos 2112 Rocket - Pass Details

Date: 22 October 2025
Orbit: 753 x 782 km, 74.0° (Epoch: 13 November)

Event Time Altitude Azimuth Distance (km) Brightness Sun altitude
Rises 22:03:11 0° 280° (W) 3,259 7.7 -44.2°
Reaches altitude 10° 22:07:27 10° 312° (NW) 2,327 7.0 -44.6°
Enters shadow 22:08:04 11° 319° (NW) 2,266 7.0 -44.6°
